Precipitable_Water
0.31 0.33 0.34 0.36 0.35 0.35 0.33 0.35 0.30 0.28 0.30 0.27 0.34 0.39 0.41 0.44 0.49 0.53 0.52 0.49 0.48 0.47 0.46 0.45 0.43 0.39 0.39 0.40 0.42 0.43 0.43 0.43 0.43 0.43 0.42 0.41 0.41 0.41 0.41 0.41 0.39 0.40 0.40 0.42
0.24 0.29 0.29 0.26 0.27 0.27 0.30 0.30 0.31 0.31 0.25 0.35 0.37 0.44 0.41 0.45 0.49 0.49 0.49 0.49 0.50 0.48 0.47 0.44 0.41 0.37 0.39 0.41 0.40 0.41 0.40 0.40 0.40 0.39 0.37 0.36 0.35 0.33 0.31 0.30 0.29 0.28 0.27 0.27
0.22 0.26 0.27 0.24 0.23 0.25 0.25 0.30 0.30 0.25 0.26 0.32 0.34 0.38 0.41 0.44 0.46 0.48 0.49 0.51 0.49 0.47 0.46 0.44 0.39 0.39 0.40 0.40 0.40 0.38 0.37 0.36 0.34 0.33 0.32 0.30 0.28 0.26 0.25 0.23 0.23 0.22 0.22 0.22
0.22 0.25 0.17 0.23 0.30 0.27 0.26 0.28 0.29 0.30 0.29 0.31 0.36 0.42 0.48 0.48 0.47 0.49 0.50 0.49 0.48 0.46 0.45 0.42 0.40 0.41 0.41 0.41 0.41 0.39 0.36 0.33 0.30 0.29 0.26 0.24 0.24 0.22 0.21 0.21 0.19 0.18 0.18 0.18
0.22 0.19 0.20 0.24 0.27 0.25 0.24 0.20 0.29 0.29 0.30 0.35 0.38 0.38 0.38 0.45 0.49 0.51 0.51 0.50 0.50 0.48 0.44 0.40 0.40 0.42 0.41 0.40 0.39 0.36 0.31 0.27 0.23 0.22 0.23 0.22 0.20 0.19 0.19 0.20 0.19 0.18 0.18 0.17
0.21 0.18 0.14 0.19 0.26 0.34 0.34 0.19 0.28 0.26 0.27 0.31 0.33 0.25 0.31 0.44 0.49 0.51 0.51 0.51 0.48 0.44 0.39 0.38 0.41 0.42 0.41 0.37 0.34 0.28 0.24 0.21 0.22 0.21 0.19 0.18 0.20 0.20 0.19 0.19 0.18 0.17 0.16 0.16
0.19 0.18 0.20 0.26 0.32 0.36 0.22 0.20 0.29 0.29 0.31 0.32 0.31 0.37 0.44 0.46 0.47 0.50 0.50 0.46 0.44 0.39 0.36 0.39 0.41 0.41 0.36 0.34 0.27 0.24 0.25 0.20 0.20 0.20 0.22 0.22 0.19 0.18 0.18 0.17 0.17 0.16 0.16 0.16
0.25 0.20 0.17 0.34 0.36 0.27 0.31 0.33 0.32 0.32 0.35 0.34 0.37 0.41 0.43 0.44 0.45 0.44 0.43 0.41 0.38 0.36 0.38 0.40 0.39 0.37 0.34 0.29 0.26 0.24 0.25 0.23 0.21 0.19 0.19 0.19 0.18 0.18 0.18 0.17 0.16 0.16 0.16 0.16
0.28 0.26 0.36 0.36 0.34 0.37 0.36 0.33 0.33 0.34 0.36 0.36 0.36 0.38 0.39 0.39 0.40 0.40 0.39 0.37 0.37 0.39 0.39 0.39 0.38 0.35 0.26 0.24 0.25 0.22 0.20 0.18 0.18 0.18 0.18 0.18 0.18 0.17 0.17 0.17 0.16 0.15 0.16 0.15
0.27 0.32 0.32 0.36 0.39 0.38 0.37 0.37 0.37 0.37 0.36 0.37 0.36 0.37 0.37 0.37 0.36 0.37 0.37 0.37 0.39 0.39 0.38 0.37 0.37 0.28 0.22 0.24 0.22 0.21 0.18 0.17 0.18 0.16 0.17 0.18 0.17 0.16 0.16 0.15 0.16 0.16 0.15 0.15
0.31 0.35 0.34 0.36 0.38 0.38 0.37 0.38 0.38 0.39 0.39 0.39 0.39 0.36 0.36 0.36 0.37 0.37 0.38 0.38 0.39 0.38 0.38 0.35 0.28 0.21 0.23 0.21 0.19 0.17 0.16 0.16 0.16 0.17 0.17 0.17 0.16 0.16 0.16 0.16 0.15 0.15 0.15 0.15
0.27 0.35 0.32 0.34 0.37 0.39 0.36 0.36 0.39 0.40 0.39 0.41 0.38 0.36 0.37 0.36 0.37 0.38 0.38 0.39 0.38 0.37 0.35 0.27 0.22 0.20 0.20 0.18 0.17 0.15 0.14 0.15 0.15 0.15 0.15 0.15 0.15 0.16 0.15 0.15 0.15 0.14 0.14 0.13
0.34 0.37 0.36 0.38 0.39 0.39 0.37 0.38 0.42 0.42 0.42 0.38 0.37 0.38 0.37 0.36 0.37 0.38 0.38 0.38 0.36 0.33 0.27 0.23 0.20 0.18 0.17 0.16 0.15 0.14 0.14 0.14 0.14 0.15 0.14 0.14 0.14 0.14 0.13 0.15 0.14 0.13 0.13 0.13
0.41 0.39 0.36 0.39 0.36 0.40 0.38 0.40 0.42 0.43 0.40 0.37 0.38 0.38 0.37 0.36 0.38 0.37 0.36 0.36 0.33 0.27 0.20 0.18 0.16 0.15 0.16 0.15 0.14 0.13 0.14 0.14 0.15 0.15 0.15 0.16 0.16 0.15 0.15 0.14 0.14 0.15 0.15 0.13
0.41 0.42 0.41 0.42 0.38 0.37 0.39 0.39 0.37 0.34 0.35 0.37 0.38 0.37 0.36 0.35 0.36 0.35 0.34 0.32 0.27 0.21 0.19 0.16 0.14 0.13 0.14 0.13 0.13 0.13 0.13 0.14 0.15 0.16 0.16 0.16 0.17 0.16 0.15 0.15 0.14 0.14 0.13 0.12
0.41 0.41 0.40 0.36 0.34 0.34 0.35 0.35 0.34 0.33 0.35 0.36 0.36 0.35 0.35 0.35 0.35 0.33 0.31 0.28 0.21 0.17 0.16 0.14 0.13 0.13 0.13 0.13 0.12 0.12 0.13 0.14 0.16 0.16 0.16 0.16 0.15 0.14 0.14 0.13 0.13 0.12 0.12 0.10
0.36 0.33 0.33 0.30 0.33 0.33 0.33 0.34 0.34 0.35 0.36 0.35 0.35 0.35 0.34 0.34 0.32 0.30 0.28 0.24 0.20 0.17 0.16 0.14 0.13 0.14 0.14 0.14 0.15 0.15 0.16 0.15 0.15 0.16 0.16 0.15 0.14 0.13 0.13 0.12 0.12 0.11 0.11 0.10
0.30 0.31 0.33 0.34 0.31 0.31 0.32 0.34 0.35 0.36 0.36 0.36 0.36 0.35 0.34 0.32 0.30 0.28 0.26 0.22 0.18 0.15 0.15 0.15 0.14 0.13 0.14 0.15 0.15 0.15 0.15 0.15 0.15 0.15 0.14 0.14 0.13 0.13 0.13 0.12 0.11 0.10 0.11 0.10
0.28 0.26 0.27 0.28 0.29 0.30 0.31 0.32 0.34 0.36 0.38 0.37 0.36 0.35 0.34 0.32 0.29 0.27 0.23 0.18 0.15 0.13 0.13 0.14 0.14 0.14 0.14 0.15 0.15 0.15 0.14 0.14 0.14 0.14 0.14 0.14 0.14 0.13 0.12 0.12 0.11 0.10 0.10 0.09
0.25 0.27 0.27 0.28 0.30 0.30 0.31 0.33 0.35 0.36 0.36 0.36 0.36 0.35 0.33 0.30 0.27 0.24 0.20 0.17 0.16 0.16 0.15 0.15 0.15 0.15 0.15 0.15 0.14 0.14 0.14 0.15 0.13 0.14 0.14 0.13 0.13 0.13 0.12 0.10 0.10 0.10 0.10 0.09
0.25 0.26 0.26 0.26 0.27 0.29 0.30 0.32 0.34 0.34 0.35 0.36 0.35 0.34 0.31 0.29 0.27 0.23 0.19 0.16 0.17 0.17 0.17 0.17 0.16 0.16 0.15 0.14 0.14 0.14 0.14 0.14 0.14 0.14 0.14 0.13 0.13 0.12 0.11 0.10 0.10 0.09 0.09 0.08
0.27 0.26 0.26 0.27 0.27 0.28 0.30 0.32 0.33 0.33 0.33 0.34 0.34 0.33 0.31 0.29 0.26 0.23 0.20 0.17 0.17 0.17 0.17 0.17 0.17 0.16 0.15 0.14 0.14 0.15 0.14 0.14 0.15 0.14 0.14 0.13 0.12 0.11 0.10 0.10 0.09 0.09 0.08 0.08
0.28 0.27 0.28 0.29 0.29 0.30 0.32 0.32 0.32 0.33 0.33 0.33 0.32 0.32 0.31 0.29 0.26 0.22 0.18 0.18 0.17 0.17 0.18 0.18 0.18 0.17 0.16 0.16 0.15 0.15 0.15 0.14 0.14 0.14 0.13 0.12 0.11 0.10 0.10 0.09 0.09 0.08 0.08 0.07
0.30 0.30 0.31 0.33 0.33 0.32 0.30 0.32 0.33 0.34 0.34 0.33 0.33 0.33 0.32 0.29 0.25 0.23 0.21 0.18 0.18 0.19 0.19 0.19 0.18 0.18 0.18 0.16 0.15 0.15 0.14 0.14 0.14 0.13 0.12 0.11 0.11 0.10 0.09 0.08 0.08 0.08 0.07 0.07
0.32 0.32 0.32 0.32 0.32 0.32 0.33 0.33 0.32 0.32 0.33 0.32 0.32 0.32 0.32 0.29 0.24 0.23 0.21 0.19 0.19 0.20 0.20 0.19 0.19 0.17 0.17 0.16 0.15 0.15 0.14 0.14 0.14 0.13 0.12 0.11 0.10 0.09 0.09 0.08 0.07 0.07 0.07 0.06
0.34 0.33 0.33 0.34 0.34 0.35 0.35 0.34 0.32 0.32 0.32 0.31 0.31 0.31 0.31 0.29 0.26 0.23 0.22 0.22 0.20 0.21 0.21 0.20 0.18 0.17 0.16 0.15 0.15 0.15 0.15 0.14 0.13 0.12 0.11 0.10 0.09 0.09 0.08 0.07 0.07 0.07 0.06 0.06
0.36 0.36 0.35 0.35 0.36 0.36 0.36 0.35 0.33 0.32 0.33 0.32 0.31 0.31 0.30 0.28 0.26 0.24 0.23 0.23 0.23 0.22 0.20 0.19 0.18 0.16 0.15 0.15 0.16 0.15 0.14 0.14 0.13 0.11 0.11 0.10 0.09 0.08 0.08 0.07 0.07 0.07 0.06 0.06
Wind_Speed
32 31 30 29 29 28 30 32 31 33 33 34 29 27 26 23 22 21 21 20 19 18 18 17 18 18 17 17 16 15 15 14 13 12 11 10 9 8 8 8 9 10 11 12
36 33 33 35 37 37 37 37 37 37 41 34 32 26 25 25 24 23 23 21 20 18 17 17 17 17 16 15 15 14 13 12 11 10 9 9 8 7 7 8 8 9 10 11
32 30 31 32 37 37 39 37 35 36 36 32 29 26 26 25 25 24 22 22 20 18 18 17 17 16 15 14 13 12 11 10 10 9 8 7 6 6 6 7 8 9 10 11
29 25 29 30 26 29 32 33 34 35 33 30 28 27 25 25 24 22 21 20 19 18 17 16 15 14 12 12 10 9 8 8 7 6 6 5 5 5 5 6 7 8 9 11
26 29 32 33 27 25 25 31 28 29 29 27 21 20 21 22 22 21 20 18 17 17 15 14 13 12 10 9 8 7 6 5 4 3 3 3 3 4 5 6 7 8 9 10
31 31 32 31 29 24 21 29 26 26 25 21 20 22 21 21 20 19 17 17 16 14 13 12 11 10 8 7 5 4 3 2 2 2 2 2 2 3 4 5 6 7 9 10
30 31 29 27 22 20 20 19 17 18 18 18 20 19 15 17 17 17 17 16 15 13 12 11 9 8 6 5 3 2 2 1 1 2 2 2 3 4 5 6 7 9 9 11
24 23 24 17 16 20 17 15 15 16 17 17 15 13 14 15 16 16 16 15 14 12 11 10 9 8 7 6 5 3 3 2 2 3 3 4 4 5 7 8 9 9 10 11
20 17 15 18 15 15 15 15 15 15 14 14 13 14 14 15 15 15 15 14 14 12 11 10 10 9 8 8 6 4 3 2 2 3 3 4 5 7 8 9 10 11 12 13
20 21 20 22 20 17 17 17 17 16 15 14 14 14 14 15 15 15 15 15 14 13 13 12 11 11 10 7 6 5 4 2 1 1 3 4 6 8 9 10 11 11 13 14
19 20 18 21 22 21 19 18 17 15 14 14 14 14 14 14 14 14 14 14 15 15 14 14 13 11 9 8 7 5 3 2 1 1 3 4 7 8 10 11 12 13 14 15
13 12 15 15 18 18 18 16 16 16 14 14 14 14 14 14 14 14 14 15 16 15 15 15 13 11 9 8 7 5 3 2 2 3 4 6 7 9 11 11 13 13 15 16
14 12 12 11 11 13 14 14 14 16 16 15 14 14 14 14 14 14 15 16 16 16 16 15 13 11 9 8 6 5 4 3 3 4 6 7 9 10 11 12 14 15 17 18
12 11 11 12 11 11 12 13 13 14 15 15 15 15 15 14 15 15 16 17 17 16 15 14 13 11 10 8 6 5 4 4 4 6 7 9 10 12 13 15 16 17 19 20
12 12 11 10 10 11 12 13 13 14 15 15 16 16 15 15 15 16 17 18 17 16 15 14 13 12 10 9 7 6 5 5 6 8 9 11 12 14 15 17 18 19 21 22
9 9 9 9 9 10 13 14 14 15 16 16 16 16 16 16 16 17 17 17 17 16 15 14 13 12 11 9 8 7 7 7 8 10 11 12 14 15 16 18 19 21 22 24
7 8 9 9 10 11 12 13 14 15 16 17 17 17 17 17 17 17 17 17 16 16 16 15 13 12 11 10 9 9 9 9 10 11 12 14 15 16 18 19 21 22 24 25
7 8 10 11 11 12 12 13 14 16 17 17 17 17 17 17 17 17 17 16 16 16 15 15 14 13 11 11 10 10 10 11 12 13 14 16 17 18 19 21 23 24 26 27
6 6 8 10 11 12 13 14 15 16 17 17 18 18 18 17 17 18 18 17 17 16 16 15 14 13 12 11 11 11 12 13 14 15 16 17 19 20 21 22 24 25 27 27
5 6 7 9 11 12 14 15 16 17 18 18 19 19 19 19 19 19 18 18 17 17 17 16 15 14 13 13 13 13 14 14 15 17 18 19 20 21 23 24 25 26 27 28
4 5 6 7 9 10 13 15 17 18 19 20 21 21 20 20 20 20 19 18 18 17 17 16 15 15 14 14 14 14 15 16 17 18 19 20 21 22 24 25 26 27 28 29
3 3 3 4 5 7 10 14 17 18 20 21 21 22 22 21 21 21 20 19 19 19 17 16 16 15 14 14 14 15 15 16 18 19 20 21 22 23 24 25 26 27 28 30
2 1 1 1 1 3 5 8 12 17 19 20 21 22 22 22 22 21 20 20 19 19 17 17 16 15 15 15 15 16 17 17 19 20 21 21 22 23 25 26 27 28 29 30
3 3 1 0 1 1 1 2 6 9 13 17 18 20 21 21 21 20 19 20 19 19 17 16 16 15 15 15 16 16 17 18 19 20 21 21 23 24 25 26 27 28 29 31
5 4 3 2 2 2 2 2 4 6 8 12 14 16 17 19 19 19 19 19 19 18 17 16 16 15 15 15 16 17 18 19 20 20 21 22 23 24 25 26 27 28 30 31
6 6 6 5 5 5 4 5 5 6 7 9 12 14 16 17 17 17 17 17 17 17 16 16 16 16 16 17 17 18 19 19 20 21 22 23 24 24 25 26 27 28 29 30
6 6 6 5 5 5 6 6 6 7 9 9 10 12 14 15 15 15 15 16 16 16 16 16 16 16 16 17 18 18 19 20 21 22 22 23 24 24 25 26 27 28 29 30
Wind_Direction
258 259 260 258 255 256 254 256 259 270 273 277 279 268 265 262 254 254 247 254 260 267 277 285 292 298 299 300 300 301 300 297 298 293 290 289 290 291 291 297 305 310 310 316
258 258 259 260 259 260 260 263 265 268 272 275 276 270 261 257 252 251 250 254 258 263 270 281 287 294 295 297 298 298 300 298 297 293 287 287 287 290 298 304 309 314 318 320
258 260 260 258 258 259 262 261 263 265 270 275 270 264 257 253 251 248 246 249 254 258 268 277 281 286 291 294 295 296 296 297 297 292 288 287 286 288 300 308 312 317 321 323
260 263 253 261 262 264 262 262 262 264 268 272 273 264 257 254 248 243 242 244 249 257 265 268 273 280 283 289 292 293 297 301 298 291 284 288 288 294 309 314 321 326 327 330
255 256 260 264 263 263 258 263 262 264 266 265 264 261 262 251 243 239 239 242 247 256 256 262 266 270 273 281 282 289 300 302 302 298 288 285 300 313 318 324 328 332 335 337
253 256 261 267 269 256 260 265 262 262 263 252 250 258 257 242 236 230 233 238 242 246 250 255 260 257 262 267 270 278 290 310 330 340 356 346 344 342 340 339 344 342 342 343
251 254 260 264 257 249 248 263 263 262 257 248 254 265 237 228 225 227 230 231 233 237 243 248 243 242 233 223 211 203 169 113 57 44 44 45 26 14 5 3 356 355 352 352
246 251 250 244 238 241 253 256 260 260 254 253 255 238 225 219 220 221 221 222 226 230 233 229 221 208 198 188 181 169 146 113 77 54 42 36 27 13 2 356 354 351 351 350
245 255 249 232 250 246 251 254 257 257 255 247 232 224 218 217 215 217 216 220 220 222 215 207 201 192 183 177 173 175 164 125 87 60 43 27 17 8 1 356 354 352 349 347
251 244 246 245 247 250 251 258 258 254 244 233 225 219 216 213 214 215 216 215 214 205 196 191 186 180 177 179 179 169 156 148 108 52 33 17 7 3 360 354 349 347 346 346
245 246 249 247 247 248 251 252 249 243 232 223 218 215 209 211 212 212 211 210 201 194 190 184 181 181 184 183 180 181 183 181 201 344 348 351 356 353 351 352 349 345 343 341
245 248 253 263 249 244 243 238 233 225 220 217 215 209 206 208 207 204 198 192 187 187 184 182 183 183 184 186 190 192 199 222 276 306 321 328 330 336 346 345 346 344 343 340
246 256 259 258 242 236 233 229 224 218 215 211 209 203 200 195 193 189 186 184 182 180 180 182 183 185 188 192 197 205 214 244 283 305 317 322 326 327 326 327 331 335 335 335
236 245 254 245 248 234 224 218 214 208 206 205 200 196 191 190 187 187 184 183 181 181 183 186 188 190 195 199 204 214 230 264 288 304 314 319 322 323 323 324 323 324 326 327
244 249 252 239 232 225 214 207 201 200 198 195 193 191 190 187 185 183 182 182 184 187 190 192 193 197 203 209 216 228 249 274 291 302 311 315 317 319 320 321 322 323 323 324
234 233 229 225 220 210 205 205 201 199 196 194 193 193 192 190 187 186 186 190 193 196 196 196 199 204 210 217 224 240 261 279 291 301 308 313 316 318 319 320 321 322 322 323
222 228 222 218 215 210 208 206 204 200 197 196 195 194 192 191 191 192 194 197 199 199 200 202 206 211 218 226 240 253 269 282 292 300 307 312 315 317 318 319 320 320 321 322
245 239 229 224 218 214 211 209 206 203 202 200 199 198 198 198 198 198 198 199 199 200 204 208 212 217 226 236 250 263 276 284 291 298 305 310 312 315 316 317 319 320 319 319
245 235 228 225 222 221 218 214 211 209 206 204 202 203 203 204 202 201 201 202 203 206 210 212 217 225 234 245 257 269 279 287 292 298 303 308 311 314 315 316 318 319 319 320
244 242 237 231 230 228 224 220 216 214 212 210 209 209 209 208 206 205 206 208 211 214 213 218 224 232 241 251 263 274 282 288 293 298 303 307 310 313 314 316 317 318 320 320
253 253 244 239 235 233 228 224 221 220 218 217 216 215 213 212 211 210 211 215 217 216 219 223 231 238 247 256 267 276 284 291 296 300 304 307 309 311 313 315 317 319 319 320
256 253 242 236 236 236 235 232 228 224 222 220 218 216 214 214 213 215 218 220 218 219 224 230 236 242 251 259 270 278 286 292 297 301 304 307 309 311 313 315 317 318 319 321
237 212 189 215 237 248 248 241 230 223 221 218 216 214 215 215 215 216 218 219 220 222 228 234 239 244 253 265 273 280 287 292 297 301 304 307 309 311 313 315 317 318 320 321
198 185 186 255 244 272 274 226 208 210 213 212 210 211 211 212 214 219 221 219 221 223 231 236 241 248 259 268 275 281 288 293 297 301 304 306 309 311 314 315 317 319 320 322
208 206 217 238 250 255 240 211 205 206 208 207 206 207 207 212 215 217 219 220 221 227 234 238 244 251 263 270 277 284 289 294 298 300 303 306 309 312 314 315 318 319 321 322
217 226 239 251 261 254 245 231 225 213 204 200 206 208 209 211 215 216 218 220 223 229 236 240 248 257 267 274 280 286 290 294 297 301 304 307 309 311 313 315 318 320 321 323
227 232 240 249 255 251 244 236 229 221 217 213 208 206 207 210 212 214 217 220 226 233 240 247 254 262 269 276 282 287 291 295 299 302 305 306 309 311 313 315 317 319 321 322